Date,TemperatureHighF,TemperatureAvgF,TemperatureLowF,DewpointHighF,DewpointAvgF,DewpointLowF,HumidityHigh,HumidityAvg,HumidityLow,PressureMaxIn,PressureMinIn,WindSpeedMaxMPH,WindSpeedAvgMPH,GustSpeedMaxMPH,PrecipitationSumIn
2013-1-1,45,40,34,45,37,27,100,89,60,30.08,29.95,0,0,0,0.00
2013-1-2,43,40,36,43,40,36,100,100,100,30.07,29.92,8,-94,0,0.00
2013-1-3,43,36,30,43,34,27,100,96,86,30.22,30.05,5,1,0,0.00
2013-1-4,43,32,23,34,25,19,100,77,48,30.27,30.19,9,2,0,0.00
2013-1-5,48,35,23,34,25,21,100,71,39,30.29,30.17,8,1,0,0.00
2013-1-6,48,39,36,45,36,30,100,88,65,30.17,30.04,8,-35,0,0.00
2013-1-7,54,40,28,37,30,25,100,69,32,30.31,30.15,8,2,0,0.00
2013-1-8,54,42,28,43,35,27,92,78,62,30.35,30.27,0,0,0,0.00
2013-1-9,54,50,45,52,48,43,100,93,87,30.42,30.32,0,0,0,0.00
2013-1-10,63,54,46,54,51,46,100,88,67,30.44,30.28,13,4,28,0.00
2013-1-11,59,56,52,59,56,52,100,100,100,30.28,30.15,7,1,0,0.00
2013-1-12,70,62,57,64,60,54,100,92,72,30.21,30.12,9,1,0,0.00
2013-1-13,64,62,61,59,55,52,93,78,67,30.14,30.07,13,5,21,0.00
2013-1-14,61,57,46,59,57,46,100,100,93,30.15,30.06,10,1,16,0.00
2013-1-15,57,55,48,57,55,48,100,100,100,30.12,29.99,6,1,0,0.00
2013-1-16,61,55,50,61,55,50,100,99,87,30.02,29.93,7,0,0,0.00
2013-1-17,50,44,34,50,44,28,100,98,86,30.15,29.73,7,-48,0,0.00
2013-1-18,50,38,28,28,24,18,86,60,31,30.38,30.15,8,1,0,0.00
2013-1-19,54,42,27,34,29,21,100,65,27,30.35,30.15,6,0,0,0.00
2013-1-20,48,40,30,37,31,25,86,70,57,30.15,30.08,7,1,0,0.00
2013-1-21,46,36,28,36,27,16,92,69,41,30.08,30.00,10,2,25,0.00
2013-1-22,36,26,19,12,7,1,58,45,31,30.14,30.01,14,-37,22,0.00
2013-1-23,45,34,25,28,21,9,69,56,48,30.21,30.04,12,-42,21,0.00
2013-1-24,41,36,28,34,23,9,80,59,39,30.25,30.02,15,6,36,0.00
2013-1-25,36,27,23,36,22,9,100,84,53,30.26,30.04,5,0,0,0.00
2013-1-26,48,37,30,43,34,30,100,90,61,30.23,30.06,7,1,0,0.00
2013-1-27,52,38,28,41,33,27,100,83,61,30.37,30.25,6,0,0,0.00
2013-1-28,57,49,41,54,45,36,100,86,76,30.34,30.24,10,0,16,0.00
2013-1-29,63,53,43,57,50,43,100,92,72,30.25,30.02,12,2,20,0.00
2013-1-30,63,58,41,61,56,39,100,93,82,30.02,29.57,27,12,48,0.00
2013-1-31,37,33,28,36,23,19,93,68,55,29.99,29.63,13,4,28,0.00